Weather History for Chiang Mai, Thailand

Change the Weather History Date:

Thursday, October 18, 2012

  Actual Average Record
Temperature  
Mean Temperature 82 °F -  
Max Temperature 90 °F 84 °F 93 °F (2008)
Min Temperature 75 °F 67 °F 68 °F (2005)
Cooling Degree Days 18    
Growing Degree Days 32 (Base 50)    
Moisture  
Dew Point 70 °F    
Average Humidity 71    
Maximum Humidity 89    
Minimum Humidity 45    
Precipitation  
Precipitation 0.00 in 0.11 in - ()
Sea Level Pressure  
Sea Level Pressure 29.99 in    
Wind  
Wind Speed 3 mph ()    
Max Wind Speed 9 mph    
Max Gust Speed -    
Visibility 6.0 miles    
Events      
Averages and records for this station are not official NWS values.
T = Trace of Precipitation, MM = Missing Value Source: Averaged Metar Reports

Daily Weather History Graph

Daily Weather History Graph

Search for Another Location

Airport:

Trip Planner

Search our weather history database for the weather conditions in past years. The results will help you decide how hot, cold, wet, or windy it might be!

Date:

Astronomy

Oct. 18, 2012 Rise Set
Actual Time 6:18 AM ICT 5:59 PM ICT
Civil Twilight 5:56 AM ICT 6:21 PM ICT
Nautical Twilight 5:31 AM ICT 6:46 PM ICT
Astronomical Twilight 5:05 AM ICT 7:12 PM ICT
Moon 9:00 AM ICT 8:29 PM ICT
Length of Visible Light 12h 24m
Length of Day
11h 40m
Waxing Crescent, 10% of the Moon is Illuminated
Oct 18
Waxing Crescent
Oct 22
First Quarter
Oct 30
Full
Nov 7
Last Quarter
Nov 14
New

Hourly Weather History & Observations

Time (ICT) Temp. Heat Index Dew Point Humidity Pressure Visibility Wind Dir Wind Speed Gust Speed Precip Events Conditions
12:00 AM 78.8 °F - 71.6 °F 78% 30.01 in 6.2 mi ESE 3.5 mph - N/A   Partly Cloudy
12:30 AM 77.0 °F - 71.6 °F 83% 30.01 in 6.2 mi SE 4.6 mph - N/A   Partly Cloudy
1:00 AM 78 °F - 72 °F 76% 29.94 in 6 mi Calm Calm - -   Scattered Clouds
1:00 AM 77.0 °F - 69.8 °F 78% 29.98 in 6.2 mi SSW 4.6 mph - N/A   Partly Cloudy
1:30 AM 77.0 °F - 69.8 °F 78% 29.98 in 6.2 mi Calm Calm - N/A   Partly Cloudy
2:00 AM 75.2 °F - 69.8 °F 83% 29.98 in 6.2 mi SW 2.3 mph - N/A   Partly Cloudy
3:00 AM 75.2 °F - 71.6 °F 89% 29.98 in 6.2 mi Calm Calm - N/A   Partly Cloudy
3:30 AM 75.2 °F - 71.6 °F 89% 29.98 in 6.2 mi Calm Calm - N/A   Partly Cloudy
4:00 AM 75.2 °F - 71.6 °F 89% 29.98 in 6.2 mi Calm Calm - N/A   Partly Cloudy
4:30 AM 75.2 °F - 69.8 °F 83% 29.98 in 6.2 mi Calm Calm - N/A   Partly Cloudy
5:00 AM 75.2 °F - 69.8 °F 83% 29.98 in 6.2 mi SSW 2.3 mph - N/A   Partly Cloudy
5:30 AM 75.2 °F - 71.6 °F 89% 29.98 in 5.0 mi SW 3.5 mph - N/A   Scattered Clouds
6:00 AM 75.2 °F - 69.8 °F 83% 29.98 in 4.3 mi Calm Calm - N/A   Scattered Clouds
6:30 AM 75.2 °F - 69.8 °F 83% 30.01 in 4.3 mi Calm Calm - N/A   Mostly Cloudy
7:00 AM 76 °F - 71 °F 81% 29.97 in 6 mi Calm Calm - -   Partly Cloudy
7:00 AM 75.2 °F - 69.8 °F 83% 30.01 in 5.0 mi South 3.5 mph - N/A   Mostly Cloudy
7:30 AM 75.2 °F - 69.8 °F 83% 30.04 in 3.7 mi SSW 4.6 mph - N/A   Mostly Cloudy
8:00 AM 75.2 °F - 69.8 °F 83% 30.04 in 5.0 mi WSW 4.6 mph - N/A   Mostly Cloudy
8:30 AM 77.0 °F - 69.8 °F 78% 30.06 in 5.0 mi West 5.8 mph - N/A   Mostly Cloudy
9:00 AM 78.8 °F - 69.8 °F 74% 30.06 in 6.2 mi WNW 2.3 mph - N/A   Partly Cloudy
9:30 AM 80.6 °F 83.9 °F 69.8 °F 70% 30.06 in 6.2 mi NNE 3.5 mph - N/A   Partly Cloudy
10:00 AM 80.6 °F 83.9 °F 69.8 °F 70% 30.06 in 6.2 mi North 4.6 mph - N/A   Partly Cloudy
10:30 AM 82.4 °F 86.3 °F 69.8 °F 66% 30.06 in 6.2 mi North 4.6 mph - N/A   Scattered Clouds
11:00 AM 84.2 °F 87.3 °F 68.0 °F 58% 30.04 in 6.2 mi WNW 3.5 mph - N/A   Scattered Clouds
11:30 AM 86.0 °F 89.4 °F 68.0 °F 55% 30.04 in 6.2 mi SSW 3.5 mph - N/A   Scattered Clouds
12:00 PM 86.0 °F 89.4 °F 68.0 °F 55% 30.01 in 6.2 mi SW 3.5 mph - N/A   Scattered Clouds
12:30 PM 86.0 °F 89.4 °F 68.0 °F 55% 30.01 in 6.2 mi West 3.5 mph - N/A   Scattered Clouds
1:00 PM 90 °F - 71 °F 45% 29.91 in 6 mi SSW 5.8 mph - -   Partly Cloudy
1:00 PM 86.0 °F 89.4 °F 68.0 °F 55% 29.98 in 6.2 mi South 4.6 mph - N/A   Scattered Clouds
1:30 PM 87.8 °F 91.4 °F 68.0 °F 52% 29.98 in 6.2 mi South 5.8 mph - N/A   Scattered Clouds
2:00 PM 87.8 °F 91.4 °F 68.0 °F 52% 29.95 in 6.2 mi SSE 3.5 mph - N/A   Mostly Cloudy
2:30 PM 86.0 °F 90.4 °F 69.8 °F 58% 29.92 in 6.2 mi East 9.2 mph - N/A   Mostly Cloudy
3:00 PM 86.0 °F 90.4 °F 69.8 °F 58% 29.92 in 6.2 mi East 6.9 mph - N/A   Mostly Cloudy
3:30 PM 86.0 °F 90.4 °F 69.8 °F 58% 29.92 in 6.2 mi East 5.8 mph - N/A   Scattered Clouds
4:00 PM 86.0 °F 89.4 °F 68.0 °F 55% 29.92 in 6.2 mi East 3.5 mph - N/A   Mostly Cloudy
4:30 PM 86.0 °F 90.4 °F 69.8 °F 58% 29.92 in 6.2 mi East 3.5 mph - N/A   Scattered Clouds
5:00 PM 86.0 °F 89.4 °F 68.0 °F 55% 29.92 in 6.2 mi East 4.6 mph - N/A   Mostly Cloudy
5:30 PM 84.2 °F 88.4 °F 69.8 °F 62% 29.92 in 6.2 mi NE 4.6 mph - N/A   Mostly Cloudy
6:00 PM 84.2 °F 87.3 °F 68.0 °F 58% 29.95 in 6.2 mi North 9.2 mph - N/A   Scattered Clouds
6:30 PM 82.4 °F 86.3 °F 69.8 °F 66% 29.95 in 6.2 mi NNE 5.8 mph - N/A   Scattered Clouds
7:00 PM 83 °F - 72 °F 63% 29.89 in 6 mi Calm Calm - -   Partly Cloudy
7:00 PM 82.4 °F 86.3 °F 69.8 °F 66% 29.95 in 6.2 mi NNE 4.6 mph - N/A   Scattered Clouds
7:30 PM 82.4 °F 87.2 °F 71.6 °F 70% 29.98 in 6.2 mi ENE 3.5 mph - N/A   Scattered Clouds
8:00 PM 82.4 °F 86.3 °F 69.8 °F 66% 29.98 in 6.2 mi East 2.3 mph - N/A   Scattered Clouds
8:30 PM 80.6 °F 84.6 °F 71.6 °F 74% 30.01 in 6.2 mi NW 2.3 mph - N/A   Scattered Clouds
9:00 PM 80.6 °F 84.6 °F 71.6 °F 74% 30.01 in 6.2 mi West 3.5 mph - N/A   Scattered Clouds
9:30 PM 80.6 °F 84.6 °F 71.6 °F 74% 30.01 in 6.2 mi West 3.5 mph - N/A   Scattered Clouds
10:00 PM 78.8 °F - 71.6 °F 78% 30.01 in 6.2 mi West 3.5 mph - N/A   Scattered Clouds
10:30 PM 78.8 °F - 71.6 °F 78% 30.01 in 6.2 mi SW 2.3 mph - N/A   Scattered Clouds
11:00 PM 78.8 °F - 69.8 °F 74% 30.01 in 6.2 mi South 2.3 mph - N/A   Scattered Clouds
11:30 PM 77.0 °F - 71.6 °F 83% 30.01 in 6.2 mi Calm Calm - N/A   Scattered Clouds